Regional Weather Roundup
Issued by NWS

Home | Current Version | Previous Version | Text Only | Print | Product List | Glossary On
Versions: 1 2 3 4 5 6 7 8 9 10 11 12 13 14 15 16 17 18 19 20 21 22 23 24 25 26 27 28 29 30 31 32 33 34 35 36 37 38 39 40 41 42 43 44 45 46 47 48 49 50
000
ASUS43 KTOP 291759
RWRKS

WEATHER ROUNDUP FOR KANSAS
NATIONAL WEATHER SERVICE GOODLAND KS
100 PM CDT WED JUL 29 2015

NOTE:  "FAIR" INDICATES FEW OR NO CLOUDS BELOW 12,000 FEET WITH NO
SIGNIFICANT WEATHER AND/OR OBSTRUCTIONS TO VISIBILITY.

KSZ001>006-013>018-027>032-041>047-291900-
NORTHWEST KANSAS

CITY           SKY/WX    TMP DP  RH WIND       PRES   REMARKS
GOODLAND       PTSUNNY   78  49  35 SE10      30.32F
6HR MIN TEMP:  56; 6HR MAX TEMP:  78;

HAYS           FAIR      73  55  53 NE8       30.22S
HILL CITY      FAIR      79  53  40 E13       30.25R
6HR MIN TEMP:  62; 6HR MAX TEMP:  80;

RUSSELL        FAIR      74  61  63 N7        30.19R
6HR MIN TEMP:  65; 6HR MAX TEMP:  75; 6HR PCP: TRACE;

$$

KSZ061>065-074>080-084>089-291900-
SOUTHWEST KANSAS

CITY           SKY/WX    TMP DP  RH WIND       PRES   REMARKS
DODGE CITY     FAIR      76  62  62 E9        30.23R
6HR MIN TEMP:  59; 6HR MAX TEMP:  77; 6HR PCP:  0.03;

ELKHART          N/A     75  58  55 E8          N/A
GARDEN CITY    CLOUDY    74  55  51 SE7       30.26R
6HR MIN TEMP:  64; 6HR MAX TEMP:  76;

GREAT BEND     FAIR      75  64  69 SE7       30.19R
LIBERAL        FAIR      81  64  57 E10       30.22S
$$

KSZ066>073-081>083-090>101-291900-
SOUTHEAST KANSAS

CITY           SKY/WX    TMP DP  RH WIND       PRES   REMARKS
CHANUTE        FAIR      91  70  49 MISG      30.10R HX  96
6HR MIN TEMP:  76; 6HR MAX TEMP:  91;

COFFEYVILLE    FAIR      93  72  50 VRB6      30.05F HX 101
6HR MIN TEMP:  74; 6HR MAX TEMP:  94;

HUTCHINSON     FAIR      76  69  79 NE8       30.15F
6HR MIN TEMP:  69; 6HR MAX TEMP:  77; 6HR PCP:  0.09;

MEDICINE LODGE   N/A     81  68  64 E15G23    30.12F
NEWTON         PTSUNNY   75  64  69 NE7       30.19R
PARSONS        FAIR      92  72  51 CALM      30.09S HX  99
6HR MIN TEMP:  78; 6HR MAX TEMP:  93;

WICHITA INTL   TSTM      78  71  79 NE15      30.13R
6HR MIN TEMP:  74; 6HR MAX TEMP:  83; 6HR PCP:  0.11;

WICHITA JABRA  PTSUNNY   79  70  74 N14       30.16R
6HR MIN TEMP:  73; 6HR MAX TEMP:  85; 6HR PCP:  0.02;

WINFIELD       FAIR      92  67  43 E12       30.10F HX  95
6HR MIN TEMP:  76; 6HR MAX TEMP:  92;

$$

KSZ007>012-019>026-033>040-048>060-102>105-291900-
NORTHEAST KANSAS

CITY           SKY/WX    TMP DP  RH WIND       PRES   REMARKS
CONCORDIA      FAIR      76  59  55 NE13G21   30.15F
6HR MIN TEMP:  63; 6HR MAX TEMP:  78;

EMPORIA        FAIR      76  69  79 N10       30.15R
6HR MIN TEMP:  69; 6HR MAX TEMP:  78; 6HR PCP:  0.08;

LAWRENCE       CLOUDY    82  70  66 N5        30.15F
6HR MIN TEMP:  70; 6HR MAX TEMP:  83; 6HR PCP:  0.02;

MANHATTAN      FAIR      78  71  79 NE12      30.14F
6HR MIN TEMP:  70; 6HR MAX TEMP:  79; 6HR PCP:  0.06;

OLATHE IND     FAIR      81  72  74 N13       30.17F
6HR MIN TEMP:  71; 6HR MAX TEMP:  82; 6HR PCP:  0.07;

OLATHE EXE     FAIR      81  70  69 N10       30.15F
6HR MIN TEMP:  70; 6HR MAX TEMP:  81; 6HR PCP:  0.14;

SALINA         FAIR      76  65  68 NE9       30.15F
6HR MIN TEMP:  69; 6HR MAX TEMP:  77;

TOPEKA BILLARD CLOUDY    81  69  67 NE6       30.15F
6HR MIN TEMP:  70; 6HR MAX TEMP:  81; 6HR PCP:  0.07;

TOPEKA FORBES  FAIR      81  67  62 NE6       30.16F
6HR MIN TEMP:  70; 6HR MAX TEMP:  82; 6HR PCP:  0.10;

$$


USA.gov is the U.S. government's official web portal to all federal, state and local government web resources and services.